TIME,DELAY(SENSOR),PRES,OXYGEN,RAWTEMP,T(OPTODE),TCPHASE,FLUOR,BETA(BETA700),BETA(BETA412),BETA(BETA440),CDOM,C(CSC),ED(ED411.90),ED(ED443.80),ED(ED489.40),ED(ED554.70),LU(LU412.20),LU(LU443.80),LU(LU489.40),LU(LU555.00),COMP,TILTX,TILTY,CHECK
1340141794,5806,847.2399902343750000,182.7673034667968800,471.1072998046875000,8.4231786727905270,38.5135002136230500,53,103,99,80,81,15020,2146954404,2147515849,2147288850,2147515739,2147091090,2146927323,2147709714,2147119021,3515,-1,8,1914
1340145390,5806,968.5900268554688000,226.4902038574218800,530.0081787109375000,6.5954041481018070,36.8947105407714840,53,103,101,79,82,15010,2146960448,2147515428,2147295862,2147529380,2147091986,2146916498,2147728137,2147117805,449,-1,8,55456
1340148990,5807,992.7000122070312000,237.3928985595703000,539.8734741210938000,6.2868981361389160,36.4927787780761700,52,103,100,82,82,15005,2146958573,2147515035,2147297892,2147530404,2147090742,2146924160,2147726454,2147116882,9,-1,8,61021
1340152590,5807,996.7299804687500000,239.1495056152343800,540.4929809570312000,6.2674980163574220,36.4135093688964840,52,107,101,80,82,15003,2146956553,2147518409,2147295030,2147530422,2147093293,2146921709,2147729545,2147117366,933,-1,8,21514
1340156190,5807,999.4500122070312000,239.1396026611328000,541.8754272460938000,6.2242031097412110,36.4387397766113300,52,108,101,80,82,15001,2146952868,2147517339,2147294573,2147527689,2147090925,2146921060,2147726921,2147119524,875,-1,8,44436
1340159790,5804,1006.5200195312500000,242.5079956054687500,544.0120239257812000,6.1572570800781250,36.3055000305175800,52,104,100,79,83,15002,2146959158,2147520173,2147297965,2147530486,2147091190,2146920960,2147723666,2147116461,3363,-1,8,23237
1340163390,5805,1002.8499755859375000,242.7120971679687500,544.0753173828125000,6.1552720069885250,36.2963409423828100,53,102,101,79,82,15004,2146958619,2147519469,2147298112,2147529947,2147089024,2146923200,2147726784,2147119478,3112,-1,8,5627
1340166990,5806,1005.5200195312500000,243.2911987304687500,544.4500732421875000,6.1435241699218750,36.2734794616699200,53,103,101,78,82,14996,2146956480,2147517760,2147296777,2147531474,2147091154,2146921837,2147726317,2147117193,3050,-1,8,32407
1340170590,5804,1007.2399902343750000,243.4584045410156200,544.5897216796875000,6.1391468048095700,36.2676200866699200,52,102,100,79,81,14994,2146958363,2147518454,2147296557,2147530779,2147089746,2146921709,2147727405,2147114742,3531,-1,8,523
1340174190,5805,1010.0800170898438000,244.0043945312500000,545.2395019531250000,6.1187758445739750,36.2517585754394500,53,104,101,80,82,14958,2146955949,2147519414,2147298340,2147533019,2147089389,2146921325,2147730834,2147116434,3397,-1,8,53420
1340177790,5807,1011.9699707031250000,243.4174957275390600,544.1351928710938000,6.1533951759338380,36.2617607116699200,52,105,102,79,82,14958,2146959158,2147516964,2147296649,2147529654,2147092635,2146919716,2147729718,2147115977,3408,-1,8,6748
1340181390,5808,1013.6199951171875000,242.3123016357422000,543.5510864257812000,6.1717000007629395,36.3065795898437500,52,105,100,78,82,14957,2146956845,2147520411,2147297078,2147525888,2147092699,2146924443,2147727872,2147115236,10,-1,8,22371
1340184990,5807,1012.3400268554688000,241.6486968994140600,543.5493164062500000,6.1717548370361330,36.3403282165527340,52,107,101,81,82,14948,2146958710,2147517266,2147297920,2147531456,2147093970,2146918692,2147727725,2147114276,376,-1,8,14341
1340188590,5806,1012.8499755859375000,242.2996063232422000,544.5493164062500000,6.1404128074646000,36.3255805969238300,52,102,99,79,80,14956,2146959113,2147519506,2147296685,2147526354,2147090377,2146919268,2147726948,2147116068,131,-1,8,30106
1340192190,5807,1016.6799926757812000,242.6914062500000000,544.2525024414062000,6.1497168540954590,36.2999191284179700,52,105,100,79,82,14955,2146957558,2147516909,2147297252,2147532105,2147090395,2146921673,2147730496,2147118308,464,-1,8,19207
1340195790,5806,1011.5599975585938000,242.1988983154297000,544.5485229492188000,6.1404399871826170,36.3309097290039060,52,103,101,79,82,14954,2146956873,2147518363,2147301504,2147529124,2147089673,2146922578,2147728018,2147113161,458,-1,8,36603
1340199390,5809,1008.2199707031250000,243.1641998291015600,546.0379028320312000,6.0937438011169430,36.3085517883300800,52,102,101,79,82,14956,2146956032,2147517952,2147299648,2147532489,2147091264,2146914706,2147727213,2147114889,48,-1,8,1190
1340202990,5806,1008.3800048828125000,245.6705017089843800,547.1505126953125000,6.0588507652282715,36.2027816772460940,52,102,101,79,82,14955,2146956946,2147518820,2147298962,2147530889,2147090496,2146922669,2147728987,2147117805,3287,-1,8,26181
1340206590,5805,1010.9400024414062000,245.4611053466797000,546.6104736328125000,6.0757880210876465,36.2034606933593750,52,103,101,79,81,14955,2146952411,2147517092,2147300141,2147527158,2147087707,2146919616,2147728201,2147117019,3190,-1,8,57469
1340210190,5809,1010.8200073242188000,245.2053070068359400,547.6765136718750000,6.0423507690429690,36.2356605529785160,52,105,101,78,83,14874,2146956772,2147515282,2147299611,2147530779,2147093202,2146913901,2147731300,2147116955,55,-1,8,3146
1340213790,5803,1015.1099853515625000,245.8482971191406200,546.9570922851562000,6.0649189949035645,36.1906089782714840,52,103,101,80,81,14950,2146958354,2147518528,2147300205,2147531264,2147090523,2146916470,2147724324,2147118537,3557,-1,8,21926
1340217390,5807,1015.4699707031250000,245.5355987548828000,547.4932861328125000,6.0480980873107910,36.2160491943359400,52,106,100,80,82,14951,2146957531,2147518482,2147299044,2147529810,2147092160,2146919716,2147731264,2147119780,3408,-1,8,7028
1340220990,5804,1012.5399780273438000,245.4956970214843800,547.2794799804688000,6.0548038482666020,36.2142715454101560,52,105,100,79,82,14947,2146956708,2147521097,2147296164,2147531346,2147093348,2146920173,2147726189,2147114660,155,-1,8,49786
1340224590,5808,1018.4899902343750000,244.6168975830078000,546.1210937500000000,6.0911350250244140,36.2371788024902340,52,104,100,79,82,14948,2146954971,2147522368,2147296091,2147529289,2147089636,2146915337,2147728859,2147117577,173,-1,8,52048
1340228190,5807,1019.3900146484375000,242.8540954589843800,545.5366210937500000,6.1094632148742680,36.3154106140136700,52,106,101,80,81,14945,2146956827,2147518491,2147298322,2147529398,2147090569,2146918829,2147726784,2147116845,821,-1,8,43863
1340231790,5805,1019.0800170898438000,241.9461975097656200,545.2664184570312000,6.1179351806640625,36.3564300537109400,51,101,101,80,81,14949,2146957988,2147517037,2147299090,2147529883,2147089737,2146923190,2147725814,2147117129,3156,-1,8,51036
1340235390,5805,1019.7299804687500000,244.5355987548828000,545.9874267578125000,6.0953288078308105,36.2389793395996100,53,103,101,79,83,14946,2146957485,2147515693,2147298029,2147527963,2147088466,2146918372,2147727798,2147120118,3419,-2,8,43099
1340238990,5804,1016.8699951171875000,243.3390960693359400,546.9486083984375000,6.0651841163635250,36.3165588378906250,53,103,101,79,82,14943,2146957065,2147518080,2147297216,2147531556,2147090212,2146921673,2147727341,2147116864,3519,-1,8,53383
1340242590,5806,1016.6300048828125000,243.3531951904297000,547.0343017578125000,6.0624961853027340,36.3175086975097660,53,126,101,79,81,14947,2146958473,2147519533,2147300589,2147527579,2147087734,2146923227,2147728347,2147117778,3369,-1,8,25642
1340246190,5804,1011.0800170898438000,244.9080047607422000,549.0551147460938000,5.9990978240966800,36.2758293151855500,52,102,102,79,82,14943,2146953755,2147515227,2147297737,2147527890,2147092013,2146917321,2147730779,2147117366,3147,-1,8,35491
1340249790,5806,1018.3800048828125000,246.1145019531250000,548.8197021484375000,6.0064849853515625,36.2106895446777340,52,104,102,80,82,14929,2146957942,2147517211,2147296795,2147529206,2147090185,2146917714,2147725568,2147119378,3280,-1,8,13606
1340253390,5803,1023.1099853515625000,244.1952972412109400,547.2512207031250000,6.0556950569152830,36.2783393859863300,52,103,100,79,82,14926,2146956352,2147521874,2147299629,2147529929,2147088548,2146920054,2147730989,2147116214,3575,-2,8,18073
1340256990,5806,1016.2700195312500000,243.7756042480468800,546.9525146484375000,6.0650629997253420,36.2942085266113300,53,104,101,80,81,14926,2146953709,2147519579,2147296457,2147530660,2147089563,2146918454,2147730112,2147116352,434,-1,8,63544
1340260590,5807,1018.6400146484375000,244.6752929687500000,547.1890869140625000,6.0576419830322270,36.2529907226562500,52,103,101,79,81,14925,2146958162,2147517494,2147298587,2147529216,2147090139,2146921737,2147725888,2147117229,488,-1,8,59873
1340264190,5807,1020.0700073242188000,243.7292938232422000,547.5142211914062000,6.0474429130554200,36.3069610595703100,52,103,100,80,82,14922,2146955757,2147519241,2147301065,2147530688,2147089499,2146921691,2147730002,2147120164,123,-1,8,41186
1340267790,5808,1024.3599853515625000,243.6699066162109400,546.8706054687500000,6.0676307678222660,36.2981605529785160,53,102,101,79,82,14925,2146958966,2147519524,2147299739,2147530752,2147087149,2146922898,2147720923,2147117814,704,-1,8,19218
1340271390,5805,1019.4099731445312000,245.6058959960937500,547.5825805664062000,6.0452980995178220,36.2142486572265600,53,103,101,79,83,14925,2146957833,2147517357,2147294235,2147528164,2147088960,2146916187,2147725778,2147118363,3306,-1,8,25860
1340274990,5803,1017.7500000000000000,245.9703063964843800,548.0806884765625000,6.0296730995178220,36.2045516967773440,52,106,100,78,82,14922,2146956434,2147518153,2147300333,2147532955,2147086528,2146916370,2147726308,2147116635,3457,-1,8,5261
1340278590,5804,1017.8900146484375000,244.9564971923828000,548.8347778320312000,6.0060100555419920,36.2691116333007800,52,104,101,79,81,14926,2146958144,2147518208,2147300681,2147528557,2147090331,2146920868,2147725650,2147117129,3391,-1,8,53838
1340282190,5805,1017.4899902343750000,245.8762054443359400,548.2581176757812000,6.0241050720214840,36.2125892639160160,52,100,101,79,82,14922,2146957979,2147513462,2147302582,2147528813,2147088996,2146917174,2147728475,2147117531,3395,-1,8,8316
1340285790,5804,1018.5599975585938000,245.1784057617187500,548.5457763671875000,6.0150790214538570,36.2525482177734400,53,102,101,79,82,14925,2146958976,2147518272,2147302409,2147529965,2147090221,2146920064,2147726921,2147116800,3457,-1,8,8195
1340286356,5805,1180.0000000000000000,244.8329925537109400,548.6163940429688000,6.0128650665283200,36.2713012695312500,52,103,101,79,82,14959,2146953627,2147519798,2147301403,2147528941,2147090724,2146919414,2147729435,2147117376,3348,-1,8,7648
